Find Starlink 31796

NORAD ID: 59646 Int'l Des: 2024-082 Owner: SPXS Country: US Constellation: starlink operational
LEOCIRCULAR

当前视图

正在加载3D地球...

About Starlink 31796

Starlink 31796 (NORAD 59646) is a starlink constellation satellite (v2 mini) launched May 3, 2024 by SPXS of US. It operates in LEO, CIRCULAR orbit with a mass of 730.00 kg.

即将过境

Passes for default location (London). Set your location on the main map for personalized predictions.

高度历史

Loading altitude history...

两行轨道根数

1 59646U 24082R 26255.76789863 -.00000031 00000-0 84021-5 0 9995
2 59646 43.0004 163.2388 0000886 264.0403 96.0348 15.27580547133589
Epoch: Sep 12, 2026 • Age: 8 hours

当前状态

高度 486.1 km
远地点 / 近地点 N/A
速度 7.63 km/s
星下点 39.93°N, 115.4°W
发射日期 May 3, 2024
运行时间 2.3 years
类型 internet

技术详情

分类 Payload
质量 730.00 kg
干质量 700.00 kg
总质量 730.00 kg
长度 0.30 m
直径 4.10 m
跨度 29.00 m
形状 Box + pan
制造商 SPXS
平台类型 Starlink V2M
阶段状态 In Orbit
所有者/国家 SPXS/US

Most Searched